Flag for Germany Weather past 2 weeks in Heidenheim an der Brenz, Baden-Württemberg, Germany

Now
19 °F

Light snow. Ice fog.


Feels Like: 9 °F
Forecast: 13 / 29 °F
Wind: 8 mph from West

Location: Stoetten

Current Time: Dec 29, 2014 at 2:53:23 PM

Latest Report: Dec 29, 2014 at 2:00 PM


Visibility: 0 mi

Pressure: 30.47 "Hg

Humidity: 94%

Dew point: 18 °F

Location of Heidenheim an der BrenzLocation

Historic Weather in Heidenheim an der Brenz — Graph

°F

Heidenheim an der Brenz temperature yesterday

Maximum temperature yesterday: 28 °F (at 12:00 AM)
Minimum temperature yesterday: 9 °F (at 11:00 PM)
Average temperature yesterday: 19 °F

Past Weeks' High & Low Weather Summary

 TemperatureHumidityPressure
High49 °F (Dec 18, 10:00 PM)100% (Dec 14, 1:00 PM)30.60 "Hg (Dec 14, 1:00 PM)
Low7 °F (Dec 29, 2:00 AM)42% (Dec 23, 1:00 PM)29.47 "Hg (Dec 27, 4:00 PM)
Average35 °F88%30.17 "Hg
* Reported Dec 14 1:00 PM — Dec 29 1:00 PM, Heidenheim an der Brenz, Weather by CustomWeather, © 2014

Note: Actual official high and low records may vary slightly from our data, if they occured in-between our weather recording intervals... More about our weather records

Advertising

Heidenheim an der Brenz weather history for previous 24 hours

 ConditionsComfort  
Time TempWeatherWind HumidityBarometerVisibility
1:00 PM
Dec 29
19 °FLight snow. Low clouds.10 mph94%30.48 "Hg1 mi
12:00 PM17 °FLight snow. Low clouds.12 mph93%30.48 "Hg1 mi
11:00 AM16 °FLight snow. Low clouds.10 mph92%30.48 "Hg1 mi
10:00 AM14 °FLight snow. Ice fog.9 mph90%30.50 "Hg1 mi
9:00 AM15 °FLight snow. Low clouds.7 mph91%30.49 "Hg2 mi
8:00 AM14 °FLow clouds.8 mph91%30.51 "Hg7 mi
7:00 AM13 °FLow clouds.7 mph92%30.54 "Hg6 mi
6:00 AM12 °FSnow flurries. Low clouds.5 mph91%30.56 "Hg3 mi
5:00 AM11 °FSnow flurries. Low clouds.5 mph92%30.59 "Hg0 mi
4:00 AM11 °FLow clouds.5 mph92%30.59 "Hg0 mi
3:00 AM11 °FLow clouds.2 mph94%30.59 "Hg0 mi
2:00 AM7 °FPassing clouds.3 mph93%30.60 "Hg1 mi
1:00 AM8 °FFog.3 mph90%30.59 "Hg4 mi
12:00 AM8 °FClear.2 mph90%30.57 "Hg5 mi
11:00 PM
Dec 28
9 °FClear.3 mph86%30.56 "Hg9 mi
10:00 PM11 °FClear.5 mph78%30.53 "Hg12 mi
9:00 PM11 °FClear.6 mph76%30.51 "Hg13 mi
8:00 PM12 °FClear.5 mph79%30.47 "Hg10 mi
7:00 PM11 °FClear.5 mph79%30.42 "Hg9 mi
6:00 PM12 °FClear.5 mph82%30.38 "Hg7 mi
5:00 PM13 °FPassing clouds.5 mph84%30.32 "Hg8 mi
4:00 PM15 °FPartly sunny.6 mph84%30.27 "Hg7 mi
3:00 PM18 °FLow clouds.5 mph88%30.19 "Hg6 mi
2:00 PM20 °FOvercast.6 mph88%30.12 "Hg4 mi
Weather by CustomWeather, © 2014

See weather overviewHow to use our weather pages